Location: ??????
(55.2000°N, 38.3000°E)
Time: 00:10:37
(UTC+00:00)

CBERS-1 - Pass Details

Date: 15 November 2025
Orbit: 765 x 772 km, 98.8° (Epoch: 12 December)

Event Time Altitude Azimuth Distance (km) Brightness Sun altitude
Rises 03:33:32 0° 17° (NNE) 3,263 7.3 -12.0°
Reaches altitude 10° 03:35:52 10° 19° (NNE) 2,331 6.5 -11.7°
Maximum altitude 03:41:01 77° 106° (ESE) 798 4.2 -11.0°
Drops below altitude 10° 03:46:07 10° 192° (SSW) 2,311 6.6 -10.3°
Sets 03:48:25 0° 194° (SSW) 3,233 7.3 -10.0°
